Location: *
(34.6903°N, 135.5184°E)
Time: 11:51:07
(UTC+00:00)

IDEFIX/ARIANE 42P - Pass Details

Date: 22 September 2019
Orbit: 786 x 802 km, 98.3° (Epoch: 14 October)

Event Time Altitude Azimuth Distance (km) Brightness Sun altitude
Rises 19:08:19 0° 6° (N) 3,318 6.1 -20.7°
Reaches altitude 10° 19:10:43 10° 1° (N) 2,384 5.2 -20.2°
Maximum altitude 19:15:47 50° 287° (WNW) 1,014 2.7 -19.2°
Enters shadow 19:18:00 31° 230° (SW) 1,384 3.3 -18.8°
